Notices

What's New in latest Release from April 7th, 2021:

- Updated Glossary, including Speed of Maximum Gust, and Total Hourly Precipitation

- Updated national and regional climate services offices contacts and prices information

- Addition of station inventory lists for 1981-2010, 1971-2000, and 1961-1990 Normals.

If you haven't already, please take our survey and provide feedback about our website: https://eccc.sondage-survey.ca/f/LanguageSelection.aspx?s=442ca660-fcf1-47c0-95a9-59707d6fd709

Hourly Data Report for November 01, 2019

CARBERRY CS
MANITOBA
Current Station Operator: ECCC - MSC

49°54'20.900" N
99°21'26.800" W
383.50 m
5010547
71170
WZE

Download Data

Hourly Data (November 2019)
Hourly Data Report for November 1, 2019
TIME
LST
Temp Definition
°C
Dew Point Definition
°C
Rel Hum Definition
%
Precip. Amount Definition
mm

Wind Dir Definition
10's deg

Wind Spd Definition
km/h
Visibility Definition
km
Stn Press Definition
kPa
Hmdx Definition


Wind Chill Definition


Weather Definition


00:00 -0.6 -3.8 79 0.0 30 15   96.61   -5 LegendNANA
01:00 -0.8 -4.1 78 0.0 30 16   96.64   -6 LegendNANA
02:00 -1.1 -4.3 79 0.0 31 10   96.70   -5 LegendNANA
03:00 -1.2 -3.9 82 0.0 30 8   96.74   -4 LegendNANA
04:00 -1.3 -3.7 84 0.0 27 11   96.76   -5 LegendNANA
05:00 -1.7 -4.0 84 0.0 26 12   96.80   -6 LegendNANA
06:00 -1.3 -3.5 85 0.0 28 22   96.84   -7 LegendNANA
07:00 -1.6 -3.6 87 0.0 27 15   96.85   -6 LegendNANA
08:00 -1.7 -3.8 85 0.0 28 18   96.90   -7 LegendNANA
09:00 -1.2 -3.7 83 0.0 27 17   96.93   -6 LegendNANA
10:00 0.0 -3.1 79 0.0 28 20   96.94   -5 LegendNANA
11:00 0.7 -3.2 75 0.0 29 25   96.98     LegendNANA
12:00 1.3 -3.0 73 0.0 30 27   96.96     LegendNANA
13:00 1.7 -3.6 68 0.0 31 23   96.96     LegendNANA
14:00 0.2 -2.6 81 0.0 2 14   97.00     LegendNANA
15:00 -0.8 -1.2 97 0.0 1 11   97.09   -5 LegendNANA
16:00 -0.7 -1.8 92 0.0 35 9   97.15   -4 LegendNANA
17:00 -1.2 -2.7 89 0.0 36 12   97.20   -5 LegendNANA
18:00 -1.6 -2.6 93 0.2 31 7   97.25   -4 LegendNANA
19:00 -2.0 -3.1 92 0.0 1 9   97.29   -5 LegendNANA
20:00 -2.1 -2.3 98 0.0 33 5   97.30   -4 LegendNANA
21:00 -2.4 -2.4 100 0.2 28 4   97.31   -4 LegendNANA
22:00 -2.5 -2.5 100 0.0 29 3   97.31   -4 LegendNANA
23:00 -2.5 -2.6 100 0.0   0   97.33     LegendNANA

Notes on Data Quality.

Legend

  • E = Estimated
  • M = Missing
  • NA = Not Available*
  • [empty] = Indicates an unobserved value
Date modified: